Theta_e
279 279 279 279 278 278 278 278 278 278 279 279 279 278 279 278 278 277 278 277 277 278
279 279 278 278 278 278 278 280 278 278 278 278 279 278 278 278 277 277 277 278 278 277
278 279 279 278 278 278 279 279 278 278 278 278 278 278 277 277 278 277 277 278 277 277
279 279 279 279 279 278 279 279 278 278 278 278 278 278 277 277 277 276 277 277 277 277
279 279 278 278 279 279 279 279 279 279 278 278 278 278 277 276 277 276 276 276 276 276
279 278 278 278 279 279 277 277 278 278 278 278 278 277 277 277 277 276 276 276 276 276
278 279 278 279 279 279 278 276 275 275 276 276 276 278 277 278 276 276 276 277 277 276
279 279 279 278 278 278 278 278 276 273 272 273 274 276 275 277 275 275 275 276 277 278
279 279 279 279 278 278 278 278 278 275 274 273 276 280 283 282 276 277 276 276 276 277
278 278 277 277 277 277 276 276 276 274 273 270 273 281 283 283 280 277 276 275 276 276
274 274 274 273 272 272 273 271 269 268 268 267 271 280 281 282 276 273 274 273 273 273
271 271 271 271 269 268 267 265 265 267 267 266 268 278 279 279 273 275 272 271 270 271
268 269 268 268 268 268 264 265 267 266 265 267 266 275 278 278 275 273 274 276 267 274
266 268 268 268 267 265 263 264 261 263 264 265 264 267 277 278 275 272 273 273 273 267
Wind_Speed
7 4 5 6 4 4 4 4 4 3 3 3 3 3 3 2 2 3 3 3 3 1
6 6 5 5 4 4 4 3 5 4 4 3 2 2 2 2 2 2 2 1 2 1
6 6 6 5 6 6 5 4 6 4 4 3 3 2 2 1 0 1 1 1 2 2
7 6 6 6 6 6 4 6 6 5 5 5 5 4 3 3 2 2 3 3 3 4
7 7 7 7 7 6 7 6 6 5 5 5 5 5 5 5 3 4 4 5 4 5
7 7 8 7 7 6 5 4 5 5 6 6 6 5 6 5 5 5 5 5 5 6
9 8 7 7 7 6 6 5 5 5 6 5 5 5 6 6 6 6 6 7 7 7
7 6 6 6 6 6 6 5 4 3 3 4 4 5 5 7 6 7 8 8 9 8
4 4 5 5 5 4 4 4 3 3 4 5 5 11 14 10 7 8 8 9 8 8
4 4 4 4 3 4 4 4 4 3 2 5 5 12 14 15 6 6 8 9 8 7
8 7 6 7 6 5 4 3 3 4 4 4 5 13 15 15 5 5 7 7 7 9
7 6 6 6 5 3 3 3 2 3 5 4 6 14 15 13 4 6 6 6 6 7
6 6 5 4 4 2 2 3 3 5 4 6 6 13 15 13 4 6 6 6 5 13
6 4 5 5 3 3 3 4 4 4 5 5 4 7 15 16 6 4 7 7 6 4
Wind_Direction
169 178 171 175 166 174 181 169 170 145 127 114 91 66 58 52 49 45 50 44 38 37
179 174 172 190 172 175 167 180 170 170 160 153 132 111 99 81 51 35 15 14 6 334
189 187 177 176 192 189 189 193 171 186 191 188 190 174 147 136 303 351 315 289 322 300
187 194 194 191 202 195 194 198 194 192 209 209 207 211 206 223 229 258 277 282 273 285
188 187 193 205 210 198 207 203 200 204 218 222 223 217 223 235 242 250 261 263 267 265
195 192 200 205 212 207 209 203 209 197 212 221 222 222 226 228 235 240 240 245 248 254
192 202 200 204 207 206 210 202 216 221 217 223 224 226 233 236 234 239 245 243 239 242
203 193 204 212 206 215 210 212 219 218 250 251 236 235 233 238 233 240 250 246 243 244
198 206 208 219 221 209 221 225 225 225 234 249 245 255 259 258 226 234 238 254 245 240
37 53 44 36 57 49 46 36 8 343 311 282 279 294 289 285 260 238 239 244 254 253
40 40 38 53 41 27 35 31 5 332 325 306 298 318 312 305 280 252 250 247 248 250
28 41 34 36 24 13 11 357 334 298 312 307 302 321 321 317 287 278 257 241 235 242
26 30 33 23 8 343 333 295 319 320 299 298 297 317 325 323 293 293 295 288 241 254
21 24 18 3 358 331 324 329 329 313 307 305 293 309 323 323 308 276 290 281 280 241